Regional Weather Roundup
Issued by NWS

Home | Current Version | Previous Version | Graphics & Text | Print | Product List | Glossary On
Versions: 1 2 3 4 5 6 7 8 9 10 11 12 13 14 15 16 17 18 19 20 21 22 23 24 25 26 27 28 29 30 31 32 33 34 35 36 37 38 39 40 41 42 43 44 45 46 47 48 49 50
508
ASUS43 KDTX 082210
RWRMI
MICHIGAN HOURLY REGIONAL WEATHER ROUNDUP
NATIONAL WEATHER SERVICE DETROIT/PONTIAC MI
500 PM EST MON FEB 08 2016

NOTE: "FAIR" INDICATES FEW OR NO CLOUDS BELOW 12,000 FEET WITH NO
SIGNIFICANT WEATHER AND/OR OBSTRUCTION TO VISIBILITY.

MIZ047>049-052>055-059>063-066>070-074>076-081>083-082300-
SOUTHEAST LOWER MICHIGAN

CITY           SKY/WX    TMP DP  RH WIND       PRES   REMARKS
ADRIAN         CLOUDY    37  27  67 W14       29.60R WCI  28
ALMA           CLOUDY    40  27  59 W10       29.59R WCI  33
ANN ARBOR      CLOUDY    40  27  59 NW6       29.57R
BAD AXE        CLOUDY    38  31  73 NW5       29.56F WCI  35
CARO           CLOUDY    39  30  70 W3        29.57R
DETROIT CITY   CLOUDY    41  26  55 NW7       29.57R
DETROIT        CLOUDY    41  27  57 NW6       29.58R
FLINT          CLOUDY    40  29  64 NW9       29.58R WCI  34
GROSSE ILE     CLOUDY    41  27  56 CALM      29.56S
HILLSDALE      MOCLDY    35  25  65 W8        29.59S WCI  29
HOWELL         CLOUDY    38  29  69 NW5       29.57R WCI  35

CITY           SKY/WX    TMP DP  RH WIND       PRES   REMARKS
JACKSON        CLOUDY    37  25  61 SW13      29.59R WCI  29
LAMBERTVILLE   CLOUDY    40  28  63 W10       29.59R WCI  33
LANSING        MOCLDY    38  26  62 W6        29.59R WCI  33
LAPEER         CLOUDY    38  29  69 NW6       29.57R WCI  34
MASON          PTCLDY    39  25  58 W7        29.58S WCI  34
MONROE         CLOUDY    40  28  61 NW5       29.57R
MT. CLEMENS    CLOUDY    39  28  62 NW10      29.55R WCI  33
PONTIAC        CLOUDY    38  26  62 NW10      29.56R WCI  31
PORT HOPE        N/A     33  32  96 CALM      29.56R
PORT HURON     RAIN      36  34  93 CALM      29.56S
TRI CITIES     CLOUDY    41  28  60 SW8       29.58R
MIDLAND        MOCLDY    41  25  52 W7        29.57S
TROY           CLOUDY    41  28  58 NW6       29.58R
SAGINAW HB     CLOUDY    39  32  75 W7        29.57S WCI  34
$$
MIZ043>046-050>051-056>058-064>065-071>073-077>080-082300-
SOUTHWEST LOWER MICHIGAN

CITY           SKY/WX    TMP DP  RH WIND       PRES   REMARKS
BATTLE CREEK   FLURRIES  34  28  79 W12       29.61R WCI  25
BENTON HARBOR  LGT SNOW  32  28  85 W13G18    29.67R FOG     WCI  22
BIG RAPIDS     CLEAR     38  23  55 N5        29.58S WCI  34
COLDWATER      CLOUDY    35  29  79 W9        29.61R WCI  28
FREMONT        CLOUDY    36  30  78 W7        29.60R WCI  30
HOLLAND        CLOUDY    34  31  88 NW12      29.63R WCI  25
GRAND RAPIDS   MOCLDY    36  30  79 W9        29.60R WCI  29
IONIA          CLOUDY    38  26  60 W5        29.58S WCI  35
KALAMAZOO      FLURRIES  35  28  75 SW9       29.62R WCI  28
LUDINGTON      MOCLDY    36  32  86 NW5       29.62R WCI  32
MARSHALL       CLOUDY    37  27  68 W8        29.59S WCI  30
MOUNT PLEASANT MOCLDY    40  25  54 W6        29.57S
MUSKEGON       CLOUDY    37  30  75 NW10      29.62R WCI  30
SOUTH HAVEN    CLOUDY    33  31  92 NW10      29.65R WCI  25
$$
MIZ016>042-082300-
NORTHERN LOWER MICHIGAN

CITY           SKY/WX    TMP DP  RH WIND       PRES   REMARKS
ALPENA         CLOUDY    37  31  78 N8        29.58R WCI  31
BEAVER ISLAND  CLOUDY    30  26  83 NW10G20   29.64R WCI  21
BELLAIRE       CLOUDY    37  32  84 N7        29.61R WCI  31
CADILLAC       CLOUDY    36  28  72 NW8       29.56S WCI  29
CHARLEVOIX     CLOUDY    33  30  90 N12G17    29.65R WCI  24
FRANKFORT      CLOUDY    33  30  88 N10G16    29.63R WCI  25
GAYLORD        CLOUDY    38  27  64 N5        29.56R WCI  34
GRAYLING       PTCLDY    37  26  63 NW3       29.57R
HARBOR SPRINGS CLOUDY    34  31  90 N5        29.61R WCI  30
HOUGHTON LAKE  MOCLDY    38  23  55 N6        29.56R WCI  33
MANISTEE       CLOUDY    36  28  75 W6        29.61S WCI  31
OSCODA         CLOUDY    36  31  85 NE3       29.57R
PELLSTON       CLOUDY    34  31  88 NW8       29.61R WCI  27
ROGERS CITY    CLOUDY    34  32  92 N3        29.60S FOG
TRAVERSE CITY  CLOUDY    36  30  79 N9        29.60R WCI  29
$$
MIZ007>008-015-082300-
EASTERN UPPER MICHIGAN

CITY           SKY/WX    TMP DP  RH WIND       PRES   REMARKS
KINROSS        CLOUDY    32  30  93 NW13      29.61R WCI  22
MACKINAC ISLAN CLOUDY    35  35  99 N7        29.60R WCI  29
NEWBERRY       CLOUDY    27  23  86 NW12G20   29.64R WCI  16
S. S. MARIE    CLOUDY    32  29  88 NW10      29.62R WCI  24
MUNISING         N/A     21  15  78 NW18G25   29.71R WCI   6
$$
MIZ004>006-011>014-085-082300-
CENTRAL UPPER MICHIGAN

CITY           SKY/WX    TMP DP  RH WIND       PRES   REMARKS
MANISTIQUE     CLOUDY    25  19  77 NW16G26   29.66R WCI  13
ESCANABA       CLOUDY    25  16  68 N10G17    29.69R WCI  15
MENOMINEE      CLOUDY    25  19  80 N14G20    29.69R WCI  13
SAWYER-GWINN   LGT SNOW  18  12  79 N9        29.69R WCI   6
$$
MIZ001>003-009>011-084-082300-
WESTERN UPPER MICHIGAN

CITY           SKY/WX    TMP DP  RH WIND       PRES   REMARKS
IRON MOUNTAIN  CLOUDY    20  12  71 N16       29.69R HAZE    WCI   6
HOUGHTON       LGT SNOW  13   7  77 NW14      29.74R VSB 3/4 WCI  -2
COPPER HARBOR    N/A     16  13  88 N22       29.75R WCI  -2
IRONWOOD       CLOUDY    14  10  85 NW12G17   29.78R WCI   0
$$

ABBREVIATIONS USED IN REMARKS
   TC - TEMPERATURE IN CELSIUS
  WCI - WIND CHILL INDEX
   HX - HEAT INDEX
  VSB - VISIBILITY





USA.gov is the U.S. government's official web portal to all federal, state and local government web resources and services.